Regional Weather Roundup
Issued by NWS

Home | Current Version | Previous Version | Graphics & Text | Print | Product List | Glossary On
Versions: 1 2 3 4 5 6 7 8 9 10 11 12 13 14 15 16 17 18 19 20 21 22 23 24 25 26 27 28
000
ASUS45 KPSR 260410
RWRAZ

ARIZONA HOURLY REGIONAL WEATHER ROUNDUP
NATIONAL WEATHER SERVICE PHOENIX AZ
900 PM MST SAT MAR 25 2017

NOTE: FAIR INDICATES FEW OR NO CLOUDS BELOW 12,000 FEET WITH NO
SIGNIFICANT WEATHER AND/OR OBSTRUCTIONS TO VISIBILITY.

AZZ001>003-036-260500-
NORTHWEST ARIZONA

CITY           SKY/WX    TMP DP  RH WIND       PRES   REMARKS
BULLHEAD CITY  CLEAR     72  36  26 N8        29.88R
KINGMAN        CLEAR     51  26  37 E6        29.98R
$$

AZZ004>008-015-016-018-260500-
NORTH CENTRAL ARIZONA

CITY           SKY/WX    TMP DP  RH WIND       PRES   REMARKS
GRAND CANYON   PTCLDY    41  29  62 W8        30.02R
WILLIAMS       PTCLDY    41  30  65 W8        30.04R
PRESCOTT       CLEAR     47  30  51 SW5       30.00R
FLAGSTAFF      PTCLDY    39  30  70 SW12      30.02R WCI  32
PAYSON         CLEAR     52  28  40 W6        30.03R
PAGE           MOCLDY    52  39  61 W12G22    29.93S
$$

AZZ009>014-017-260500-
NORTHEAST ARIZONA

CITY           SKY/WX    TMP DP  RH WIND       PRES   REMARKS
WINSLOW        CLEAR     44  29  55 SW7       29.98R
SAINT JOHNS    PTCLDY    43  32  65 CALM      30.01R
WINDOW ROCK    CLOUDY    36  32  85 S5        30.01F WCI  32
SHOW LOW       PTCLDY    41  25  52 S7        30.04S
$$

AZZ023-260500-
GREATER PHOENIX AREA

CITY           SKY/WX    TMP DP  RH WIND       PRES   REMARKS
PHOENIX        PTCLDY    74  30  19 NW12      29.86R
BUCKEYE        CLEAR     64  32  29 N7        29.88R
LUKE AFB       CLEAR     69  32  25 NW8       29.86R
DEER VALLEY    CLEAR     67  33  28 NW8       29.87R
SCOTTSDALE     CLEAR     70  30  22 NW3       29.89R
MESA-GATEWAY   PTCLDY    66  28  24 W9        29.89R
CHANDLER       CLEAR     68  28  22 SW9       29.88R
$$

AZZ027-028-260500-
SOUTHWEST MARICOPA COUNTY AND PINAL COUNTY

CITY           SKY/WX    TMP DP  RH WIND       PRES   REMARKS
CASA GRANDE    NOT AVBL
GILA BEND      FAIR      71  32  24 NW6       29.88R
$$

AZZ503-504-507>509-260500-
SOUTHEAST ARIZONA

CITY           SKY/WX    TMP DP  RH WIND       PRES   REMARKS
TUCSON         CLOUDY    70  29  21 W8        29.95R
DAVIS-MONTHAN  CLOUDY    69  30  22 W9        29.94R
NOGALES        CLOUDY    63  28  26 W7        30.00R
SIERRA VISTA   CLOUDY    59  24  26 CALM      30.03R
DOUGLAS        MOCLDY    65  20  17 W10       29.98R
SAFFORD        MOCLDY    65  27  23 NW10      29.91R
$$

AZZ020-021-025-026-031-260500-
SOUTHWEST ARIZONA

CITY           SKY/WX    TMP DP  RH WIND       PRES   REMARKS
YUMA           CLEAR     68  43  40 W8        29.89R
$$

CAZ031-033-041-043-047-048-061-260500-
SOUTHERN CALIFORNIA

CITY           SKY/WX    TMP DP  RH WIND       PRES   REMARKS
DOWNTOWN L.A.  CLEAR     60  54  80 CALM      30.04R
L.A. AIRPORT   PTCLDY    58  54  86 W17       30.05R
SAN DIEGO      MOCLDY    63  54  72 NW7       30.07R
BURBANK        CLEAR     58  50  75 S3        30.04R
ONTARIO        MOCLDY    57  52  83 W12       30.04R
RIVERSIDE      MOCLDY    58  53  84 W6        30.04R
PALM SPRINGS   CLEAR     71  44  37 NW15      29.93R
EL CENTRO NAS  CLEAR     68  42  38 W20       29.92R
IMPERIAL       CLEAR     66  46  48 W13       29.89R
BLYTHE         CLEAR     72  38  29 SW6       29.87R
NEEDLES        PTCLDY    72  40  31 N6        29.88R
$$

NVZ020-UTZ003-260500-
SOUTHERN NEVADA-UTAH

CITY           SKY/WX    TMP DP  RH WIND       PRES   REMARKS
LAS VEGAS      PTCLDY    65  34  31 N7        29.95R
SALT LAKE CITY MOCLDY    42  38  85 NE5       30.03R
$$

NMZ009-TXZ055-260500-
NEW MEXICO-WEST TEXAS

CITY           SKY/WX    TMP DP  RH WIND       PRES   REMARKS
ALBUQUERQUE    PTCLDY    61  16  17 W18G28    29.89R
EL PASO        CLEAR     75   8   7 W24G31    29.85F
$$


........................KEY........................
SKY/WX - SKY CONDITION/WEATHER
TMP    - TEMPERATURE IN FAHRENHEIT
DP     - DEW POINT IN FAHRENHEIT
RH     - RELATIVE HUMIDITY IN PERCENT
WIND   - DIRECTION AND SPEED IN MILES PER HOUR (MPH)
VRB    - VARIABLE WIND DIRECTION
PRES   - MEAN SEA LEVEL PRESSURE IN INCHES OF MERCURY
         F - FALLING PRESSURE   R - RISING PRESSURE
         S - STEADY PRESSURE
VSB    - VISIBILITY IN MILES
HX     - HEAT INDEX IN FAHRENHEIT
WCI    - WIND CHILL INDEX IN FAHRENHEIT
TC     - TEMPERATURE IN CELSIUS WHICH IS ALSO KNOWN AS
         TEMPERATURE IN CENTIGRADE
AFB    - AIR FORCE BASE
         LUKE AFB IS LUKE AIR FORCE BASE
         DAVIS-MONTHAN IS DAVIS-MONTHAN AIR FORCE BASE
NAS    - NAVAL AIR STATION
         EL CENTRO NAS IS EL CENTRO NAVAL AIR STATION
N/A    - NOT AVAILABLE





USA.gov is the U.S. government's official web portal to all federal, state and local government web resources and services.